Date,TemperatureHighF,TemperatureAvgF,TemperatureLowF,DewpointHighF,DewpointAvgF,DewpointLowF,HumidityHigh,HumidityAvg,HumidityLow,PressureMaxIn,PressureMinIn,WindSpeedMaxMPH,WindSpeedAvgMPH,GustSpeedMaxMPH,PrecipitationSumIn
2012-1-1,66.1,54.8,45.1,43.4,32.7,27.6,71,45,26,30.56,30.10,20,7,20,0.00
2012-1-2,65.8,50.4,39.0,29.3,26.8,23.9,65,42,22,30.71,30.55,18,4,18,0.00
2012-1-3,61.6,46.0,31.0,39.5,27.2,23.1,79,52,25,30.61,30.28,14,4,14,0.00
2012-1-4,73.0,56.2,43.8,49.7,42.0,34.5,89,62,37,30.29,30.17,9,3,9,0.00
2012-1-5,70.2,58.0,47.8,53.4,42.1,35.1,71,56,38,30.31,30.12,12,2,12,0.00
2012-1-6,72.3,64.5,52.1,55.0,52.8,49.8,93,67,52,30.04,29.88,17,6,17,0.00
2012-1-7,75.4,60.1,50.7,54.0,47.8,41.0,93,67,38,30.04,29.91,13,2,13,0.01
2012-1-8,65.0,57.5,50.1,58.3,50.7,40.8,88,78,65,30.02,29.90,9,2,9,0.00
2012-1-9,59.3,51.2,43.3,55.7,47.5,37.9,92,87,78,30.07,29.89,21,9,21,0.07
2012-1-10,64.2,49.4,40.5,41.1,36.0,32.1,83,63,32,30.06,29.88,20,8,20,0.00
2012-1-11,74.2,57.4,37.7,38.2,35.5,31.4,82,48,25,29.89,29.68,20,7,20,0.00
2012-1-12,51.5,43.4,33.2,37.2,20.2,10.4,64,42,22,30.29,29.89,24,9,24,0.00
2012-1-13,58.7,44.3,34.7,25.9,20.5,15.5,60,41,19,30.35,30.24,12,3,12,0.00
2012-1-14,65.4,47.2,34.8,33.2,25.8,18.8,78,47,22,30.42,30.28,16,3,16,0.00
2012-1-15,62.7,51.7,35.6,57.7,42.6,26.8,90,72,50,30.33,30.17,12,4,12,0.00
2012-1-16,75.5,65.0,60.0,62.9,60.3,57.4,95,85,62,30.18,29.91,17,5,17,0.00
2012-1-17,80.2,65.1,46.6,66.9,50.1,28.8,96,64,30,30.22,29.92,14,5,14,0.00
2012-1-18,66.7,51.2,38.6,44.5,32.2,23.1,70,49,29,30.29,30.05,12,4,12,0.00
2012-1-19,77.1,60.2,45.2,55.3,48.4,38.8,85,67,42,30.05,29.83,15,5,15,0.00
2012-1-20,63.8,59.2,54.7,62.3,57.2,49.5,95,93,84,29.87,29.80,12,2,12,0.00
2012-1-21,69.7,58.4,48.2,44.3,42.3,37.3,77,57,38,30.01,29.85,16,3,16,0.00
2012-1-22,73.8,59.5,49.0,64.0,53.7,37.9,94,82,53,29.91,29.73,15,3,15,0.00
2012-1-23,72.2,57.5,48.6,42.5,38.3,31.5,68,50,31,30.11,29.91,12,2,12,0.00
2012-1-24,67.3,59.5,51.4,65.8,53.7,40.8,95,82,59,29.99,29.75,12,2,12,0.21
2012-1-25,67.6,57.2,43.5,66.1,53.1,40.5,95,86,67,29.95,29.63,17,6,17,2.76
2012-1-26,72.7,54.4,42.1,45.9,40.9,35.8,93,66,28,30.08,29.93,17,4,17,0.01
2012-1-27,73.5,54.6,39.1,46.9,41.1,35.0,90,64,32,30.08,29.91,16,4,16,0.00
2012-1-28,65.9,53.9,41.1,46.2,32.3,27.0,85,47,24,30.41,30.08,15,5,15,0.00
2012-1-29,63.4,49.0,37.1,37.2,31.8,27.0,75,54,31,30.47,30.31,12,2,12,0.00
2012-1-30,62.7,54.1,43.2,58.5,49.6,35.8,95,85,75,30.32,30.12,12,2,12,0.38
2012-1-31,69.5,62.2,55.6,62.8,58.7,53.0,96,89,73,30.12,30.00,15,4,15,0.06
2012-2-1,78.8,66.8,57.7,68.5,62.0,55.4,96,86,61,30.10,29.98,8,2,8,0.02
2012-2-2,71.6,64.0,59.1,67.3,61.8,57.1,96,93,82,30.05,29.88,12,3,12,0.05
2012-2-3,74.9,69.1,65.8,66.6,65.0,63.5,95,87,72,29.94,29.84,15,4,15,0.21
2012-2-4,68.2,56.9,51.0,66.4,46.3,37.7,94,69,47,30.24,29.91,21,8,21,0.23
2012-2-5,51.1,46.1,41.8,43.2,39.3,34.8,90,78,60,30.35,30.19,18,5,18,0.21
2012-2-6,48.4,43.3,40.9,39.3,37.6,35.7,88,80,66,30.35,30.28,9,2,9,0.00
2012-2-7,63.6,57.2,42.9,48.8,45.5,40.7,92,66,50,30.32,30.15,2,0,5,0.00
2012-2-8,60.6,50.0,42.0,45.1,40.7,35.8,82,71,52,30.45,30.28,14,4,20,0.00
2012-2-9,57.6,48.7,38.3,45.1,40.7,35.3,91,75,58,30.32,30.10,10,2,10,0.00
2012-2-10,66.3,53.4,45.1,52.0,44.1,35.7,94,74,34,30.29,30.06,17,3,17,0.11
2012-2-11,59.2,46.6,38.0,37.6,28.9,18.6,82,53,29,30.51,30.25,14,4,13,0.00
2012-2-12,42.0,37.5,32.0,35.8,23.3,17.8,91,57,44,30.51,30.16,13,4,13,0.02
2012-2-13,67.6,50.8,38.2,54.8,46.5,35.8,95,86,63,30.16,29.83,12,2,12,0.34
2012-2-14,71.6,57.1,42.9,59.7,52.0,40.4,95,84,60,29.95,29.82,16,2,16,0.02
2012-2-15,82.2,67.8,56.6,68.6,57.5,46.6,96,73,35,30.01,29.84,17,3,17,0.01
2012-2-16,67.3,58.4,50.6,48.0,43.0,38.4,76,58,38,30.16,30.01,6,1,13,0.00
2012-2-17,56.4,54.1,50.9,55.0,51.6,47.3,95,91,76,30.06,29.82,7,3,7,0.57
2012-2-18,59.4,54.7,48.1,56.2,51.6,44.1,96,90,73,30.05,29.75,26,7,26,1.18
2012-2-19,63.7,52.8,45.5,47.0,44.6,41.9,91,75,53,30.13,29.99,15,4,15,0.00
2012-2-20,69.0,56.0,47.5,56.5,50.9,45.0,93,84,60,30.10,29.97,15,3,15,0.00
2012-2-21,75.0,63.3,55.0,61.0,56.4,52.7,95,80,48,30.15,29.95,13,3,13,0.00
2012-2-22,81.5,69.2,61.0,63.8,58.5,49.1,94,72,42,29.96,29.68,17,6,17,0.00
2012-2-23,88.8,71.3,58.5,63.2,53.0,43.7,81,56,23,29.68,29.53,18,4,18,0.00
2012-2-24,67.8,56.8,44.8,57.0,28.3,22.0,70,35,22,30.37,29.67,25,7,25,0.00
2012-2-25,57.9,48.3,40.8,34.1,29.8,22.8,72,51,27,30.42,30.22,12,2,12,0.00
2012-2-26,61.9,51.6,35.7,52.7,42.9,31.1,90,73,59,30.22,30.02,18,4,18,0.00
2012-2-27,63.6,60.7,57.9,61.8,58.2,52.6,95,92,80,30.18,30.08,10,3,10,0.10
2012-2-28,71.7,63.0,60.9,67.2,61.5,59.5,96,95,81,30.10,30.00,18,6,18,0.03
2012-2-29,84.0,66.5,58.1,63.5,57.5,54.1,94,75,40,29.95,29.86,5,0,11,0.01
2012-3-1,72.5,68.1,60.3,67.0,64.8,58.3,94,89,82,30.00,29.67,14,2,14,0.00
2012-3-2,89.1,73.3,61.1,69.3,57.2,41.6,95,64,21,29.74,29.61,9,3,12,0.00
2012-3-3,69.1,58.7,46.7,43.9,32.7,22.2,77,41,19,30.19,29.74,21,7,21,0.02
2012-3-4,72.8,55.6,38.7,36.4,32.4,27.5,74,46,20,30.26,30.12,17,4,17,0.00
2012-3-5,75.7,60.0,44.3,50.6,41.9,34.5,83,55,30,30.33,30.18,16,6,20,0.00
2012-3-6,75.3,62.8,53.0,59.1,53.6,50.3,93,74,47,30.22,29.97,22,9,22,0.00
2012-3-7,72.2,67.0,63.2,65.3,62.6,59.1,93,86,77,29.99,29.83,20,9,20,0.01
2012-3-8,77.9,66.5,48.6,69.1,60.6,42.4,93,82,58,30.16,29.84,24,10,24,0.02
2012-3-9,48.7,44.8,43.1,43.4,41.2,38.6,93,87,80,30.32,30.11,20,8,20,0.21
2012-3-10,52.0,47.9,43.0,50.3,46.2,40.8,95,94,92,30.29,30.02,9,2,9,0.55
2012-3-11,75.7,60.1,51.1,57.8,52.6,48.1,96,79,48,30.05,29.92,10,2,16,0.32
2012-3-12,79.8,64.0,47.9,65.5,57.5,45.1,95,81,55,30.08,29.97,12,3,12,0.01
2012-3-13,79.8,69.9,62.4,67.9,64.5,59.7,94,84,64,30.08,29.95,14,5,14,0.00
2012-3-14,79.0,70.6,66.1,68.3,65.3,61.3,93,84,66,30.07,29.98,17,6,17,0.00
2012-3-15,80.7,71.4,66.6,67.2,65.2,63.8,93,82,59,30.11,29.99,16,6,16,0.00
2012-3-16,79.9,71.0,67.7,68.4,65.7,64.4,93,84,61,30.09,29.93,21,7,21,0.00
2012-3-17,78.3,70.6,66.2,66.7,64.5,63.4,91,82,62,30.01,29.88,14,6,14,0.00
2012-3-18,76.2,70.4,66.6,68.3,65.7,63.8,92,85,74,29.97,29.80,20,8,20,0.00
2012-3-19,78.4,71.2,67.7,68.6,66.6,64.2,94,86,70,29.87,29.51,20,8,20,0.04
2012-3-20,73.0,60.8,52.5,67.6,50.4,41.4,94,72,36,29.84,29.53,21,5,21,1.80
2012-3-21,74.7,61.1,48.9,49.8,40.4,34.3,83,50,26,29.89,29.80,22,6,22,0.00
2012-3-23,83.8,65.4,48.1,56.5,49.8,43.2,84,61,32,30.03,29.88,12,2,12,0.00
2012-3-24,82.3,66.9,55.4,65.4,60.1,52.5,94,81,52,30.03,29.92,7,1,7,0.01
2012-3-25,84.5,68.1,55.9,64.8,58.4,53.4,95,75,37,30.06,29.94,10,1,10,0.01
2012-3-26,81.8,69.2,59.2,62.4,58.1,54.2,93,71,42,30.04,29.90,16,3,16,0.00
2012-3-27,79.7,69.1,61.1,66.8,62.3,55.8,92,80,60,30.02,29.92,15,4,15,0.00
2012-3-28,77.5,69.2,65.4,65.8,64.3,62.1,95,85,63,30.00,29.86,13,3,13,0.14
2012-3-29,81.5,71.0,64.2,69.5,65.3,62.3,95,83,62,29.92,29.73,12,2,12,0.00
2012-3-30,85.4,73.8,65.9,67.3,64.8,61.4,95,76,49,29.83,29.72,13,3,13,0.00
2012-3-31,89.6,75.6,62.4,69.5,64.7,59.7,94,72,41,29.83,29.72,14,4,14,0.00
2012-4-1,86.7,74.8,63.9,68.9,66.5,61.5,94,77,52,29.80,29.63,15,5,15,0.00
2012-4-2,85.2,74.2,60.1,71.6,64.5,56.8,91,74,50,29.68,29.50,17,6,17,0.00
2012-4-3,85.2,78.1,64.8,70.0,62.2,46.1,82,59,41,29.78,29.65,12,3,12,0.00
2012-4-4,91.2,70.4,53.7,53.6,47.4,39.2,71,49,17,29.86,29.69,13,3,13,0.00
2012-4-5,66.5,62.0,59.4,64.7,57.6,51.0,94,86,69,29.79,29.75,7,0,7,0.00
2012-4-6,84.8,72.9,62.9,66.0,60.6,54.0,85,66,47,29.98,29.83,13,3,13,0.00
2012-4-7,85.6,73.7,65.4,66.1,64.0,60.8,91,74,47,30.15,29.96,12,4,12,0.00
2012-4-8,84.1,71.4,60.4,64.1,59.1,55.7,92,68,40,30.20,30.09,12,2,12,0.00
2012-4-9,81.5,70.2,60.2,64.3,59.5,56.6,92,72,44,30.15,30.03,12,3,12,0.00
2012-4-10,75.2,67.5,60.6,65.6,63.2,58.3,93,86,71,30.07,30.05,3,2,10,0.00
2012-4-11,65.6,61.3,58.2,59.3,57.0,54.8,92,86,79,30.06,30.01,5,1,5,0.00
2012-4-12,80.0,73.6,67.9,70.9,66.7,64.7,94,80,63,29.98,29.85,17,6,17,0.27
2012-4-13,80.6,72.5,68.0,69.4,67.0,64.9,93,84,66,29.92,29.78,16,7,16,0.01
2012-4-14,78.3,74.2,71.5,70.1,68.5,67.3,90,82,72,29.84,29.66,20,10,20,0.00
2012-4-15,83.3,74.6,63.9,70.1,60.6,47.4,89,65,34,29.87,29.63,26,7,26,0.00
2012-4-16,77.8,66.1,56.3,53.7,50.6,42.6,81,60,30,30.10,29.88,12,3,12,0.00
2012-4-17,89.7,71.5,57.6,58.1,50.6,40.9,90,54,20,30.18,30.05,12,3,12,0.00
2012-4-18,84.2,70.1,58.2,62.1,55.0,45.9,90,62,32,30.15,29.94,14,2,14,0.00
2012-4-19,85.2,70.8,56.0,62.2,56.0,51.7,87,63,39,29.98,29.72,15,5,15,0.00
2012-4-20,79.3,69.2,61.0,65.1,58.4,46.5,92,71,41,29.96,29.69,22,4,22,0.04
2012-4-22,92.2,70.9,51.2,52.0,47.1,43.3,77,47,22,30.09,29.95,10,2,10,0.00
2012-4-23,82.3,70.3,58.9,51.2,45.4,39.4,65,43,26,30.19,30.00,12,2,12,0.00
2012-4-25,92.8,77.2,66.2,69.5,63.9,59.4,85,67,34,29.91,29.75,20,7,20,0.00
2012-4-26,94.7,77.5,64.4,69.6,64.5,57.8,90,68,30,29.83,29.73,15,6,15,0.00
2012-4-27,91.3,75.9,64.2,67.5,63.6,57.3,92,69,33,29.81,29.69,18,7,18,0.00
2012-4-28,74.2,70.8,67.0,67.3,65.5,63.6,91,84,79,29.80,29.75,17,6,17,0.00
2012-4-29,74.2,74.2,74.2,67.3,67.3,67.3,79,79,79,29.79,29.79,6,6,6,0.00
2012-4-30,74.2,74.2,74.2,67.3,67.3,67.3,79,79,79,29.79,29.79,6,6,6,0.00
2012-5-1,86.2,79.1,72.8,67.3,66.4,65.0,82,66,50,29.84,29.75,14,6,14,0.00
2012-5-2,87.9,76.6,70.2,69.0,67.3,66.0,91,75,50,29.87,29.76,12,4,12,0.00
2012-5-3,91.4,80.4,71.7,69.7,68.3,66.9,88,69,47,29.92,29.77,15,5,15,0.00
2012-5-4,94.0,80.6,71.5,70.4,68.0,63.3,91,68,40,29.94,29.77,14,5,14,0.00
2012-5-5,94.3,81.2,72.5,73.4,71.2,68.6,91,73,51,29.91,29.70,16,5,16,0.00
2012-5-6,90.0,76.9,64.1,71.8,67.1,62.3,95,74,49,29.92,29.74,22,5,22,1.37
2012-5-7,90.5,78.8,65.9,73.0,68.9,59.5,92,74,54,29.91,29.69,20,4,20,0.08
2012-5-8,70.1,66.4,63.3,66.1,63.9,61.5,94,92,84,30.01,29.79,12,3,12,0.70
2012-5-9,82.6,71.0,61.1,66.1,62.8,59.4,95,77,50,30.06,29.87,22,3,22,0.17
2012-5-10,74.4,68.7,62.9,67.4,65.5,61.1,94,90,76,29.89,29.69,21,5,21,1.38
2012-5-11,84.3,71.4,61.5,67.8,63.6,59.9,96,79,52,29.89,29.72,10,2,10,0.01
2012-5-13,88.3,73.1,59.9,61.8,58.8,56.1,92,64,36,30.15,30.00,13,2,13,0.00
2012-5-14,86.3,72.3,62.0,65.9,59.6,56.1,92,67,38,30.07,29.90,15,2,15,0.82
2012-5-15,78.0,66.4,61.5,67.3,62.0,58.3,95,87,62,30.06,29.94,10,2,10,2.41
2012-5-16,88.8,71.7,57.2,63.8,58.2,53.0,95,68,31,30.07,29.93,10,2,10,0.01
2012-5-18,86.1,74.2,60.0,65.7,61.9,56.6,92,68,43,29.92,29.79,16,4,16,0.00
2012-5-19,88.0,76.8,69.0,68.1,65.4,61.2,92,70,43,29.93,29.82,16,6,16,0.00
2012-5-20,89.1,77.0,70.0,69.0,64.6,57.8,91,69,40,30.06,29.91,14,3,14,0.00
2012-5-21,90.0,76.6,62.8,67.3,62.7,59.4,93,65,41,30.10,29.99,12,2,12,0.00
2012-5-23,90.4,77.9,67.5,71.1,67.3,55.6,89,71,51,29.80,29.57,21,7,21,0.00
2012-5-24,92.3,80.0,73.0,72.7,70.1,68.0,86,73,49,29.70,29.57,16,8,16,0.00
2012-5-25,76.1,74.6,72.7,70.3,69.8,69.0,89,85,82,29.78,29.70,15,7,15,0.00
2012-5-26,91.3,83.9,74.4,72.4,68.5,64.8,88,61,45,29.96,29.83,17,8,17,0.00
2012-5-27,89.8,79.6,71.9,69.6,67.4,64.2,90,69,45,29.92,29.78,14,6,14,0.00
2012-5-28,92.0,81.3,72.9,69.9,68.5,66.5,88,67,45,29.87,29.74,15,6,15,0.00
2012-5-30,92.0,80.6,73.5,72.3,69.9,67.5,91,72,47,29.85,29.65,14,5,14,0.00
2012-5-31,86.0,77.2,72.3,71.6,68.4,62.1,91,75,48,29.87,29.65,17,3,17,0.06
2012-6-1,91.8,79.6,67.6,68.6,63.7,58.7,85,61,38,29.99,29.79,12,2,12,0.00
2012-6-2,92.0,81.0,71.1,70.1,68.0,65.9,91,67,44,29.90,29.76,15,5,15,0.00
2012-6-3,88.8,79.9,73.9,72.4,70.2,65.5,90,73,53,29.89,29.76,21,6,21,0.00
2012-6-4,93.0,81.6,73.7,72.7,70.6,67.4,90,71,47,29.86,29.69,14,4,14,0.00
2012-6-5,94.7,82.3,71.4,72.5,68.0,60.9,92,65,37,29.80,29.67,12,2,12,0.00
2012-6-6,95.8,84.3,69.7,70.1,66.7,62.8,90,59,36,29.78,29.67,10,3,10,0.00
2012-6-7,94.0,80.9,73.7,72.0,66.7,58.7,89,65,35,29.91,29.76,13,3,13,0.00
2012-6-8,92.2,78.3,70.5,70.4,68.0,65.2,88,72,45,29.90,29.77,9,2,9,0.00
2012-6-9,92.8,78.0,64.4,70.1,65.7,60.5,90,69,41,29.84,29.66,13,2,13,0.00
2012-6-10,98.4,91.7,81.8,73.9,71.6,68.1,76,53,39,29.76,29.65,15,5,15,0.00
2012-6-11,99.8,86.2,76.4,74.5,71.8,66.5,87,65,36,29.90,29.74,15,6,15,0.00
2012-6-12,96.3,83.5,72.9,74.9,71.4,65.7,89,69,42,29.97,29.85,20,5,20,0.00
2012-6-13,95.3,83.3,73.2,73.9,69.5,62.8,90,66,37,30.00,29.76,15,4,15,0.00
2012-6-14,93.7,82.6,75.2,73.2,70.4,66.5,86,69,43,29.87,29.76,16,6,16,0.00
2012-6-15,96.3,83.7,74.9,72.0,69.3,64.3,88,65,38,29.92,29.79,14,6,14,0.00
2012-6-16,95.7,83.8,74.8,73.2,69.5,62.3,90,65,36,29.98,29.83,17,4,17,0.00
2012-6-17,94.1,82.8,71.2,72.3,68.0,63.2,91,64,37,29.98,29.77,28,3,28,0.00
2012-6-18,92.4,79.6,69.6,73.0,68.1,65.2,93,71,42,29.91,29.68,20,4,20,0.11
2012-6-20,87.8,80.1,75.4,74.0,71.8,69.0,90,77,59,29.90,29.80,18,6,18,0.00
2012-6-21,96.8,82.8,72.7,73.1,68.8,62.1,92,67,35,29.96,29.84,12,2,12,0.00
2012-6-22,97.2,83.1,69.4,70.4,64.5,58.8,89,58,30,29.92,29.79,10,2,10,0.00
2012-6-23,97.8,81.1,70.4,66.6,63.0,58.2,78,57,28,29.86,29.78,9,1,9,0.00
2012-6-24,100.3,86.4,72.3,70.5,66.4,61.3,82,55,30,29.92,29.80,12,2,12,0.00
2012-6-25,106.5,88.8,73.7,68.3,64.6,59.8,75,48,25,29.87,29.72,14,2,14,0.00
2012-6-26,107.3,90.0,73.0,68.0,63.4,59.2,67,44,25,29.78,29.65,16,3,16,0.00
2012-6-27,103.5,90.1,76.9,69.4,65.6,58.9,69,47,25,29.87,29.71,15,3,15,0.00
2012-6-28,98.3,86.5,75.0,73.3,66.3,59.1,87,54,29,29.97,29.86,15,4,15,0.00
2012-6-29,95.8,82.9,75.4,74.4,70.6,64.2,89,68,43,29.96,29.80,16,3,16,0.00
2012-6-30,91.3,80.6,74.3,74.2,71.0,67.3,91,74,50,29.87,29.77,17,3,17,0.00
2012-7-1,88.3,76.4,71.6,77.1,70.6,67.6,93,83,55,29.96,29.83,28,3,28,0.99
2012-7-2,94.0,82.1,72.0,76.0,70.0,60.5,95,71,34,30.02,29.89,17,6,17,0.01
2012-7-4,95.7,84.1,76.4,73.3,70.0,61.8,89,66,33,29.96,29.82,17,6,17,0.00
2012-7-5,84.7,78.3,75.8,73.0,72.0,70.3,89,82,64,29.97,29.92,15,4,15,0.00
2012-7-6,98.0,84.8,73.3,73.3,68.2,61.0,90,61,33,29.99,29.86,5,1,12,0.00
2012-7-7,98.3,92.4,82.2,70.4,65.6,62.0,61,42,33,29.99,29.85,13,3,13,0.00
2012-7-8,96.8,84.6,76.3,73.4,69.1,62.8,86,62,36,29.96,29.84,12,3,12,0.00
2012-7-9,95.2,82.3,72.5,74.9,71.0,67.7,92,71,43,29.96,29.78,12,3,12,0.33
2012-7-10,91.0,81.1,73.1,74.6,73.1,70.7,94,78,56,29.90,29.79,10,2,10,0.36
2012-7-11,77.3,74.1,71.9,74.6,72.1,69.7,95,93,90,29.89,29.83,12,1,12,2.04
2012-7-12,95.3,80.7,72.6,74.7,71.8,68.5,96,77,45,29.92,29.81,10,2,10,0.01
2012-7-13,98.3,80.8,73.0,75.7,72.1,68.2,95,78,41,29.94,29.82,15,2,15,0.58
2012-7-14,94.9,80.3,70.7,77.2,71.5,67.2,96,77,45,29.96,29.84,8,1,8,0.01
2012-7-15,93.9,78.7,68.7,75.5,68.9,64.5,95,75,42,29.98,29.83,18,2,18,0.41
2012-7-16,93.5,80.7,69.6,75.6,69.7,64.3,95,73,41,29.95,29.84,13,3,13,0.00
2012-7-17,91.5,81.0,75.0,75.2,72.7,69.7,92,77,52,29.94,29.83,13,3,13,0.00
2012-7-18,90.5,80.0,73.9,75.0,72.4,66.7,93,79,54,29.99,29.91,13,2,13,0.00
2012-7-19,93.8,81.0,70.4,75.3,71.1,68.3,94,74,47,30.08,29.96,14,2,14,0.00
2012-7-20,96.2,83.8,73.9,74.1,70.1,64.2,94,67,38,30.05,29.91,14,2,14,0.00
2012-7-21,99.2,85.5,73.0,72.7,69.2,62.9,91,62,33,29.98,29.84,13,3,13,0.00
2012-7-22,97.7,84.5,73.3,73.9,69.7,63.6,91,65,35,29.98,29.88,12,3,12,0.00
2012-7-23,95.3,83.2,75.6,74.2,71.6,64.0,90,70,38,30.03,29.94,16,4,16,0.00
2012-7-24,96.2,84.0,75.3,74.4,71.1,66.5,92,68,39,30.03,29.86,15,5,15,0.00
2012-7-25,95.0,84.2,76.0,73.8,71.9,68.2,89,69,43,29.94,29.78,16,6,16,0.00
2012-7-26,94.0,87.8,79.0,71.4,70.4,67.7,76,57,43,29.90,29.76,22,9,22,0.07
2012-7-27,94.0,82.0,76.1,75.0,72.0,59.4,90,74,42,30.01,29.89,17,4,17,0.00
2012-7-28,95.7,83.7,73.5,73.5,69.8,64.2,93,66,38,30.08,29.94,14,3,14,0.00
2012-7-29,90.4,83.6,71.0,74.0,68.6,64.6,92,63,43,30.04,29.90,14,2,14,0.00
2012-7-30,96.9,82.5,71.6,73.1,68.5,63.8,89,66,34,30.00,29.84,17,2,17,0.00
2012-8-1,98.7,85.3,73.4,71.1,66.9,61.0,88,58,30,29.94,29.80,17,5,17,0.00
2012-8-2,99.2,84.3,70.8,72.8,67.9,56.8,92,61,30,29.87,29.74,20,6,20,0.00
2012-8-3,97.7,83.8,72.0,76.7,68.4,64.5,91,63,35,29.86,29.75,21,6,21,0.00
2012-8-5,95.3,81.0,71.7,73.6,70.1,61.9,93,71,37,30.06,29.97,25,3,25,0.00
2012-8-6,89.0,75.3,69.8,70.6,68.4,66.9,92,81,51,30.06,30.01,10,1,10,0.00
2012-8-7,96.5,90.1,82.4,69.5,68.0,66.7,65,49,39,29.89,29.82,13,4,17,0.00
2012-8-8,97.0,85.3,72.3,71.1,67.6,64.5,86,58,35,29.95,29.82,18,3,18,0.00
2012-8-10,100.8,82.8,73.6,73.4,69.9,64.3,89,68,31,29.89,29.73,22,4,22,0.02
2012-8-11,99.0,85.5,71.4,72.6,68.7,64.4,92,62,33,29.91,29.80,17,2,17,0.00
2012-8-12,97.8,86.3,75.2,73.2,67.4,63.6,89,57,33,29.93,29.81,17,4,17,0.00
2012-8-13,98.7,86.8,76.4,73.1,69.4,64.2,87,59,34,29.99,29.83,21,6,21,0.00
2012-8-14,97.8,86.6,74.0,74.4,68.4,60.4,89,58,32,29.93,29.76,22,8,22,0.00
2012-8-15,98.4,86.1,75.7,72.9,67.2,58.1,83,57,27,29.89,29.74,30,11,30,0.00
2012-8-17,97.3,85.9,75.3,73.7,70.0,64.5,90,63,35,29.96,29.77,23,7,23,0.00
2012-8-18,96.6,82.9,72.1,73.3,70.5,61.3,93,69,36,29.89,29.69,24,5,24,0.51
2012-8-19,87.1,77.4,70.6,73.0,70.8,68.5,95,81,60,29.91,29.81,17,2,17,0.17
2012-8-20,94.8,80.9,69.0,71.5,67.2,63.0,94,67,36,29.93,29.80,15,3,15,0.00
2012-8-21,92.3,79.6,70.5,69.3,64.7,60.2,85,63,38,29.95,29.86,22,3,22,0.00
2012-8-22,90.5,79.7,70.1,71.0,66.8,64.0,87,67,44,30.01,29.89,14,3,14,0.00
2012-8-23,92.3,81.2,70.7,72.5,67.9,61.0,92,67,37,29.96,29.83,15,3,15,0.00
2012-8-24,94.1,82.3,72.0,73.4,69.5,64.7,93,68,39,29.90,29.73,20,5,20,0.00
2012-8-25,94.8,82.2,74.1,72.6,70.1,66.5,90,69,41,29.86,29.74,25,9,25,0.00
2012-8-26,93.4,83.4,76.3,74.2,71.4,67.4,90,69,44,29.97,29.84,20,8,20,0.00
2012-8-27,95.2,83.7,72.1,73.1,67.1,59.9,93,62,34,30.00,29.84,15,2,15,0.00
2012-8-28,96.0,85.1,76.4,70.9,67.6,63.9,78,58,36,29.90,29.73,15,4,15,0.00
2012-8-29,97.2,86.1,77.0,70.7,64.8,55.6,77,52,27,29.80,29.65,25,6,25,0.00
2012-8-31,98.8,85.0,78.1,73.4,67.8,61.6,78,58,30,29.94,29.75,23,4,23,0.00
2012-9-1,96.8,83.8,76.3,75.1,71.9,66.6,93,70,41,30.01,29.90,27,8,27,0.00
2012-9-2,96.5,84.2,75.0,72.8,68.7,58.4,91,63,30,30.01,29.84,23,8,23,0.00
2012-9-3,96.9,84.9,73.6,72.4,68.2,61.5,88,61,32,29.96,29.79,21,8,21,0.00
2012-9-5,98.1,84.9,72.8,71.7,66.9,58.2,92,59,28,29.86,29.73,18,6,18,0.00
2012-9-6,98.6,85.0,70.7,72.8,66.8,59.3,91,59,28,29.91,29.77,16,4,16,0.00
2012-9-7,99.4,85.0,70.3,72.9,64.7,55.1,92,56,24,29.87,29.72,17,4,17,0.00
2012-9-9,91.5,77.3,64.5,50.2,43.4,34.8,52,32,15,30.10,29.96,15,3,15,0.00
2012-9-10,93.0,76.4,59.4,49.7,43.9,39.1,50,34,19,30.08,29.93,14,3,14,0.00
2012-9-12,94.4,80.8,72.7,72.8,69.4,64.9,92,71,40,29.99,29.84,25,6,25,0.01
2012-9-13,90.1,77.6,67.1,73.9,70.8,64.7,93,81,49,30.10,29.92,32,7,32,0.49
2012-9-14,71.8,68.6,66.1,66.1,64.6,63.1,95,87,78,30.16,30.04,16,6,16,0.65
2012-9-15,80.2,71.2,64.6,67.3,63.7,60.3,87,78,61,30.16,30.03,14,3,14,0.00
2012-9-16,71.6,67.3,64.7,67.2,64.0,61.3,95,90,76,30.06,29.90,12,2,12,2.06
2012-9-17,84.6,72.6,65.8,68.3,64.7,62.3,96,79,48,29.94,29.75,10,1,10,0.00
2012-9-19,87.5,74.0,63.3,64.1,60.8,55.7,86,66,35,30.09,29.97,12,1,12,0.00
2012-9-20,87.2,74.0,64.0,68.5,62.6,57.8,94,70,40,30.05,29.93,15,2,15,0.00
2012-9-21,87.9,73.1,59.4,61.0,56.7,49.3,90,61,28,29.99,29.89,16,2,16,0.00
2012-9-22,87.2,73.6,60.4,67.4,60.9,56.4,88,67,40,30.06,29.95,12,2,12,0.00
2012-9-23,89.4,76.3,64.4,69.5,63.1,55.6,88,67,34,30.13,30.04,10,2,10,0.00
2012-9-24,75.5,73.8,72.3,68.2,67.7,66.7,85,81,77,30.10,30.10,1,0,1,0.00
2012-9-26,88.5,78.4,69.6,70.9,67.6,62.4,93,71,47,30.00,29.87,20,5,20,0.00
2012-9-27,88.9,78.8,69.9,72.6,69.1,64.8,92,74,49,30.02,29.89,23,4,23,0.00
2012-9-28,82.3,75.1,70.2,73.1,70.8,66.7,95,87,70,29.99,29.84,23,2,23,2.67
2012-9-29,82.5,72.5,69.3,74.4,69.9,64.7,96,92,69,29.89,29.64,23,6,23,1.05
2012-9-30,77.7,70.9,65.4,64.9,63.1,60.8,86,77,62,29.86,29.74,26,11,26,0.04
2012-10-1,78.3,66.3,59.4,66.4,60.8,57.4,94,83,57,29.89,29.79,26,3,26,0.00
2012-10-2,74.0,73.8,73.7,53.9,53.8,53.6,50,50,49,29.98,29.98,9,8,16,0.00
2012-10-3,73.7,59.2,55.2,57.7,53.7,52.0,90,83,51,29.99,29.92,13,1,13,0.00
2012-10-4,89.5,81.8,73.4,72.0,70.4,66.7,91,70,49,30.05,29.96,23,12,23,0.00
2012-10-5,86.5,77.0,70.2,70.7,67.2,62.6,93,74,46,30.05,29.90,20,7,20,0.00
2012-10-6,74.5,68.3,56.8,67.9,62.0,50.8,94,81,64,30.07,29.93,16,4,16,0.00
2012-10-7,57.0,53.8,50.3,51.0,45.8,42.8,82,75,67,30.19,30.07,18,6,18,0.00
2012-10-8,68.3,57.4,50.5,53.1,46.3,39.9,79,67,54,30.23,30.06,12,2,12,0.00
2012-10-9,61.0,60.5,60.1,54.7,53.5,52.5,82,78,74,30.07,30.00,10,3,10,0.00
2012-10-10,87.0,75.8,70.0,72.4,69.8,67.3,93,83,55,30.06,29.94,15,4,15,0.00
2012-10-11,84.3,78.5,73.5,74.8,72.5,70.4,91,82,68,30.08,29.98,20,6,20,0.04
2012-10-12,85.3,77.0,72.3,71.4,69.9,67.4,93,80,58,30.12,29.99,20,8,20,0.00
2012-10-13,84.8,77.6,73.3,74.1,71.7,70.2,91,83,65,30.05,29.80,24,13,24,0.00
2012-10-14,85.8,76.6,68.7,71.6,66.2,54.9,93,72,48,30.04,29.89,18,4,18,0.09
2012-10-15,76.5,69.1,62.1,59.5,54.9,51.3,79,62,43,30.08,29.95,12,2,12,0.00
2012-10-16,72.3,66.8,62.7,67.3,61.4,54.2,93,83,72,29.97,29.75,17,2,17,0.01
2012-10-17,89.2,73.6,64.9,71.0,66.1,56.2,95,80,49,29.76,29.58,20,4,20,0.00
2012-10-18,78.8,71.6,61.9,56.8,47.1,40.2,55,42,29,29.95,29.71,16,4,16,0.00
2012-10-19,81.8,65.8,49.2,46.9,40.7,29.1,75,44,17,30.02,29.89,13,2,13,0.00
2012-10-21,88.6,78.5,72.9,71.3,69.2,64.5,90,75,46,29.89,29.78,26,13,26,0.00
2012-10-22,87.7,77.9,72.6,71.7,69.6,65.1,90,77,48,29.92,29.82,25,12,25,0.00
2012-10-23,84.5,75.5,71.0,70.7,68.7,66.7,92,80,58,29.93,29.84,18,8,18,0.00
2012-10-24,85.3,74.7,66.4,68.4,64.9,59.1,94,74,48,29.95,29.80,24,7,24,0.00
2012-10-25,86.2,75.9,66.7,68.9,67.1,56.6,93,76,53,29.93,29.77,21,7,21,0.00
2012-10-26,66.6,56.3,48.8,56.5,45.2,36.3,88,67,55,30.22,29.93,22,10,22,0.16
2012-10-27,61.1,53.4,47.2,39.6,34.0,30.5,58,48,34,30.29,30.12,21,5,21,0.00
2012-10-28,62.4,51.7,44.8,36.2,33.9,30.3,64,52,31,30.26,30.19,12,2,12,0.00
2012-10-29,68.7,53.3,40.2,42.7,36.8,32.8,77,56,32,30.29,30.11,12,1,12,0.00
2012-10-30,74.8,59.3,44.4,55.8,47.5,38.3,82,66,48,30.13,29.95,17,3,17,0.00
2012-10-31,81.8,66.6,54.1,66.4,57.8,50.7,93,75,47,30.05,29.93,12,2,12,0.00
2012-11-1,82.5,70.7,60.3,68.7,61.2,54.2,95,75,38,30.04,29.93,18,3,18,0.00
2012-11-2,81.8,71.2,62.3,66.8,61.9,56.8,93,75,44,30.01,29.88,16,5,16,0.00
2012-11-3,83.8,70.1,61.0,68.1,62.4,58.7,95,79,44,30.04,29.92,13,2,13,0.00
2012-11-4,82.6,69.1,60.6,61.2,57.7,53.3,92,70,37,30.08,29.98,13,2,13,0.00
2012-11-5,85.4,70.7,56.4,64.5,57.6,45.3,91,66,44,30.04,29.90,20,3,20,0.00
2012-11-6,78.2,64.2,53.6,48.5,43.2,36.8,68,48,29,30.16,30.03,13,1,13,0.00
2012-11-7,80.5,61.8,51.7,51.0,46.5,43.7,75,60,34,30.17,30.04,12,3,12,0.00
2012-11-9,81.5,70.4,62.3,64.4,60.8,56.2,94,74,44,30.04,29.90,29,10,29,0.00
2012-11-10,80.1,70.9,63.3,65.2,62.0,56.6,92,75,47,29.99,29.83,33,13,33,0.00
2012-11-11,79.1,71.8,64.6,65.9,57.7,31.4,90,64,29,30.13,29.80,26,11,26,0.00
2012-11-12,64.4,54.9,46.0,40.7,30.3,22.3,62,41,21,30.45,30.13,20,6,20,0.00
2012-11-14,59.7,51.5,44.2,44.7,40.5,36.0,86,67,51,30.41,30.26,9,1,9,0.00
2012-11-15,59.4,51.7,40.3,44.8,39.7,36.2,88,66,45,30.30,30.20,6,1,6,0.00
2012-11-16,67.8,58.9,53.5,44.4,37.8,29.4,62,46,37,30.34,30.24,12,2,12,0.00
2012-11-17,67.3,53.3,40.5,39.5,34.3,28.8,69,50,30,30.37,30.25,10,1,10,0.00
2012-11-18,71.6,58.8,44.5,53.9,47.5,36.3,91,68,47,30.27,30.14,18,4,18,0.00
2012-11-19,69.4,61.0,54.5,57.8,54.0,49.9,90,78,65,30.23,30.11,14,3,14,0.00
2012-11-20,80.2,65.2,53.8,61.9,56.7,51.1,93,76,49,30.19,30.08,14,2,14,0.00
2012-11-21,76.7,64.6,55.7,59.6,54.6,50.0,92,72,43,30.23,30.12,14,2,14,0.00
2012-11-22,73.8,60.2,53.7,59.9,55.4,51.4,94,85,56,30.13,30.08,22,4,22,0.00
2012-11-23,69.9,61.0,53.9,60.4,49.0,30.6,93,68,36,30.35,30.09,20,5,20,0.00
2012-11-24,66.8,55.2,45.1,32.2,28.7,24.7,55,37,24,30.39,30.14,12,1,12,0.00
2012-11-25,72.7,58.9,43.1,60.2,47.3,27.9,88,66,49,30.14,29.92,21,6,21,0.00
2012-11-26,77.0,67.4,55.2,64.6,60.9,49.1,94,81,61,30.12,29.90,20,6,20,0.02
2012-11-27,61.0,52.3,43.0,49.4,41.0,35.4,87,67,49,30.34,30.11,25,7,25,0.01
2012-11-28,43.0,39.4,37.3,41.1,36.7,34.9,93,90,83,30.41,30.32,6,1,6,0.00
2012-12-6,68.2,61.1,54.6,63.9,56.9,49.2,94,87,59,29.86,29.80,8,1,15,0.01
2012-12-7,74.4,67.5,63.2,67.5,62.9,59.0,95,86,65,29.87,29.74,8,1,13,0.01
2012-12-8,77.2,71.0,64.0,66.4,63.5,59.8,91,78,63,29.82,29.75,16,4,16,0.00
2012-12-9,76.8,69.3,55.8,68.3,63.2,44.9,94,82,57,29.88,29.73,20,6,20,0.00
2012-12-10,55.7,45.4,36.3,44.8,24.2,14.7,70,44,34,30.11,29.86,34,10,34,0.00
2012-12-11,56.1,41.1,30.5,28.8,22.6,20.7,71,50,27,30.23,30.09,10,1,10,0.00
2012-12-12,59.9,42.6,28.0,29.0,24.3,21.3,76,52,27,30.33,30.20,12,2,12,0.00
2012-12-13,63.2,50.9,32.9,48.3,37.8,26.3,82,62,47,30.29,30.15,17,4,17,0.00
2012-12-14,69.2,61.2,53.8,65.1,56.3,43.6,94,84,61,30.16,29.83,20,5,20,0.03
2012-12-15,68.8,65.3,60.9,65.2,60.1,47.1,94,84,46,29.94,29.86,12,1,12,0.01
2012-12-16,69.7,58.0,49.8,51.9,42.4,33.0,81,58,27,29.97,29.74,13,2,22,0.02
2012-12-17,72.2,61.9,48.0,38.4,34.0,30.6,59,37,22,29.90,29.85,12,2,21,0.00
2012-12-18,79.5,63.4,46.9,61.2,43.4,31.3,89,50,32,29.91,29.75,17,6,17,0.00
2012-12-19,79.9,71.2,64.6,67.0,64.1,40.4,91,79,40,29.83,29.59,25,9,25,0.00
2012-12-20,68.6,48.4,33.9,39.8,14.3,5.5,42,27,13,30.48,29.83,38,14,38,0.00
2012-12-21,58.8,42.6,29.8,22.7,14.8,10.0,49,34,15,30.52,30.36,12,2,12,0.00
2012-12-22,64.5,52.1,34.6,55.3,38.1,16.0,81,59,35,30.38,30.08,25,6,25,0.00
2012-12-23,65.8,62.0,58.7,57.8,56.4,53.5,92,82,73,30.08,29.85,17,6,17,0.00
2012-12-24,70.1,59.0,48.6,53.9,41.2,31.8,87,56,28,29.96,29.69,12,3,12,0.00
2012-12-25,67.3,55.4,34.6,61.7,37.0,20.4,90,53,23,30.11,29.55,41,17,41,0.00
2012-12-26,49.6,36.2,28.1,21.8,19.6,17.1,64,52,33,30.28,30.10,32,9,32,0.00
2012-12-27,46.1,42.0,29.4,43.7,36.8,21.5,93,82,65,30.03,29.82,9,1,9,0.00
2012-12-28,66.7,51.0,39.2,47.2,36.5,26.5,94,63,24,30.16,29.80,25,8,25,0.00
2012-12-29,51.6,41.9,34.1,26.6,22.2,18.4,64,46,32,30.45,30.16,20,3,20,0.00
2012-12-30,52.1,42.1,29.6,46.6,29.3,21.5,92,61,40,30.46,30.16,14,2,14,0.02
2012-12-31,60.9,54.7,48.5,59.7,53.3,46.6,98,95,92,30.16,29.89,12,2,12,0.26
2013-1-1,59.4,50.0,42.1,58.3,46.8,36.3,96,89,78,30.22,29.93,20,4,20,0.09